Regional Weather Roundup
Issued by NWS

Home | Current Version | Previous Version | Text Only | Print | Product List | Glossary Off
Versions: 1 2 3 4 5 6 7 8 9 10 11 12 13 14 15 16 17 18 19 20 21 22 23 24 25 26 27 28 29 30 31 32 33 34 35 36 37 38 39 40 41 42 43 44 45 46 47 48 49 50

000
ASUS43 KFSD 202002
RWRSD

WEATHER ROUNDUP FOR SOUTH DAKOTA
NATIONAL WEATHER SERVICE SIOUX FALLS SD
200 PM CST SAT JAN 20 2018

NOTE: "FAIR" INDICATES FEW OR NO CLOUDS BELOW 12,000 FEET WITH NO
SIGNIFICANT WEATHER AND/OR OBSTRUCTIONS TO VISIBILITY.


SDZ001>005-009-010-012>017-202100-
NORTHWEST AND NORTH CENTRAL SOUTH DAKOTA

CITY           SKY/WX    TMP DP  RH WIND       PRES   REMARKS
BUFFALO          N/A     38  26  62 NW12      29.82F
FAITH            N/A     39  31  72 NW10      29.88F
MOBRIDGE       PTSUNNY   47  32  56 NW9       29.86S
$$

SDZ012>016-024>037-041>051-057-063-072>074-202100-
SOUTHWEST AND SOUTH CENTRAL SOUTH DAKOTA

CITY           SKY/WX    TMP DP  RH WIND       PRES   REMARKS
RAPID CTY ARPT CLOUDY    39  26  59 N9        29.88F
PIERRE         CLOUDY    39  38  96 NW8       29.89F
CUSTER         CLOUDY    31  21  66 N6        29.81F WCI  25
ELLSWORTH AFB  CLOUDY    38  30  72 N9        29.88F
PHILIP         CLOUDY    39  37  92 NW6       29.89F
PINE RIDGE     CLOUDY    36  33  89 NE10      29.87F
SPEARFISH        N/A     34  30  86 NW5       29.89S WCI  30
WINNER         FAIR      41  34  76 N8        29.89F
$$

SDZ004>011-016>023-039-040-202100-
NORTHEAST SOUTH DAKOTA

CITY           SKY/WX    TMP DP  RH WIND       PRES   REMARKS
ABERDEEN       PTSUNNY   48  33  56 W8        29.88S
WATERTOWN      CLOUDY    41  30  65 NW6       29.87S
BROOKINGS      MOSUNNY   42  30  62 N7        29.86
SISSETON         N/A     47  27  45 W6        29.85S
$$

SDZ017-020-022-023-036>040-048>070-202100-
SOUTHEAST SOUTH DAKOTA

CITY           SKY/WX    TMP DP  RH WIND       PRES   REMARKS
SIOUX FALLS    CLOUDY    44  34  67 NW3       29.87S
HURON          CLOUDY    46  32  58 N3        29.88F
CHAMBERLAIN    CLOUDY    43  36  78 W6        29.89F
MITCHELL       PTSUNNY   43  33  68 NW8       29.89S
YANKTON        MOSUNNY   43  31  62 N9        29.85F
$$

ABBREVIATIONS USED IN REMARKS
   TC - TEMPERATURE IN CELSIUS
  WCI - WIND CHILL INDEX
   HX - HEAT INDEX
  VSB - VISIBILITY





USA.gov is the U.S. government's official web portal to all federal, state and local government web resources and services.